Time,TemperatureF,DewpointF,PressureIn,WindDirection,WindDirectionDegrees,WindSpeedMPH,WindSpeedGustMPH,Humidity,HourlyPrecipIn,Conditions,Clouds,dailyrainin,SoftwareType,DateUTC
2013-02-06 00:03:00,48.2,46.8,29.89,SSW,208,0.0,3.0,95,0.01,,FEW,0.00,VWS V14.01,2013-02-06 08:03:00,
2013-02-06 00:08:00,48.3,46.9,29.89,South,172,0.0,4.0,95,0.01,,FEW,0.00,VWS V14.01,2013-02-06 08:08:00,
2013-02-06 00:13:00,48.2,46.8,29.89,South,172,0.0,4.0,95,0.01,,FEW,0.00,VWS V14.01,2013-02-06 08:13:00,
2013-02-06 00:18:00,48.5,47.1,29.90,SW,222,0.0,4.0,95,0.01,,FEW,0.00,VWS V14.01,2013-02-06 08:18:00,
2013-02-06 00:23:00,48.3,46.9,29.90,SW,222,0.0,4.0,95,0.01,,FEW,0.00,VWS V14.01,2013-02-06 08:23:00,
2013-02-06 00:28:00,48.0,46.6,29.90,SW,222,0.0,4.0,95,0.01,,FEW,0.00,VWS V14.01,2013-02-06 08:28:00,
2013-02-06 00:33:00,47.9,46.5,29.90,SW,222,0.0,0.0,95,0.00,,FEW,0.00,VWS V14.01,2013-02-06 08:33:00,
2013-02-06 00:38:00,47.7,46.3,29.90,SW,222,0.0,1.0,95,0.00,,FEW,0.00,VWS V14.01,2013-02-06 08:38:00,
2013-02-06 00:43:00,47.7,46.3,29.90,SW,222,0.0,1.0,95,0.00,,FEW,0.00,VWS V14.01,2013-02-06 08:43:00,
2013-02-06 00:48:00,47.7,46.3,29.91,SW,222,0.0,1.0,95,0.00,,FEW,0.00,VWS V14.01,2013-02-06 08:48:00,
2013-02-06 00:53:00,47.6,46.2,29.91,SW,222,0.0,1.0,95,0.00,,FEW,0.00,VWS V14.01,2013-02-06 08:53:00,
2013-02-06 00:58:00,47.6,46.2,29.91,SW,222,0.0,1.0,95,0.00,,FEW,0.00,VWS V14.01,2013-02-06 08:58:00,
2013-02-06 01:04:00,47.4,46.0,29.91,SW,222,0.0,0.0,95,0.00,,FEW,0.00,VWS V14.01,2013-02-06 09:04:00,
2013-02-06 01:09:00,47.4,46.0,29.91,SW,222,0.0,0.0,95,0.00,,FEW,0.00,VWS V14.01,2013-02-06 09:09:00,
2013-02-06 01:14:00,47.4,46.0,29.91,SW,222,0.0,0.0,95,0.00,,FEW,0.00,VWS V14.01,2013-02-06 09:14:00,
2013-02-06 01:19:00,47.4,46.0,29.91,SW,222,0.0,0.0,95,0.00,,FEW,0.00,VWS V14.01,2013-02-06 09:19:00,
2013-02-06 01:24:00,47.6,46.2,29.91,SW,222,0.0,0.0,95,0.00,,FEW,0.00,VWS V14.01,2013-02-06 09:24:00,
2013-02-06 01:29:00,47.6,46.2,29.91,SW,222,0.0,0.0,95,0.00,,FEW,0.00,VWS V14.01,2013-02-06 09:29:00,
2013-02-06 01:34:00,47.3,45.9,29.92,SW,222,1.0,2.0,95,0.00,,FEW,0.00,VWS V14.01,2013-02-06 09:34:00,
2013-02-06 01:39:00,47.3,45.9,29.92,SW,222,0.0,2.0,95,0.00,,FEW,0.00,VWS V14.01,2013-02-06 09:39:00,
2013-02-06 01:44:00,47.4,46.3,29.92,SW,222,0.0,2.0,96,0.00,,FEW,0.00,VWS V14.01,2013-02-06 09:44:00,
2013-02-06 01:49:00,47.4,46.3,29.92,SW,222,0.0,2.0,96,0.00,,FEW,0.00,VWS V14.01,2013-02-06 09:49:00,
2013-02-06 01:54:00,47.4,46.3,29.92,SW,222,0.0,2.0,96,0.00,,FEW,0.00,VWS V14.01,2013-02-06 09:54:00,
2013-02-06 01:59:00,47.4,46.3,29.92,SW,222,0.0,2.0,96,0.00,,FEW,0.00,VWS V14.01,2013-02-06 09:59:00,
2013-02-06 02:04:00,47.4,46.3,29.92,SW,222,0.0,0.0,96,0.00,,FEW,0.00,VWS V14.01,2013-02-06 10:04:00,
2013-02-06 02:09:00,47.6,46.5,29.92,SW,222,0.0,0.0,96,0.00,,FEW,0.00,VWS V14.01,2013-02-06 10:09:00,
2013-02-06 02:14:00,47.6,46.5,29.92,SW,222,0.0,0.0,96,0.00,,FEW,0.00,VWS V14.01,2013-02-06 10:14:00,
2013-02-06 02:19:00,47.6,46.5,29.92,SW,222,0.0,0.0,96,0.01,,FEW,0.01,VWS V14.01,2013-02-06 10:19:00,
2013-02-06 02:24:00,47.6,46.5,29.92,SW,222,0.0,0.0,96,0.01,,FEW,0.01,VWS V14.01,2013-02-06 10:24:00,
2013-02-06 02:29:00,47.6,46.5,29.92,SW,222,0.0,0.0,96,0.01,,FEW,0.01,VWS V14.01,2013-02-06 10:29:00,
2013-02-06 02:34:00,47.6,46.5,29.92,SW,222,0.0,0.0,96,0.01,,FEW,0.01,VWS V14.01,2013-02-06 10:34:00,
2013-02-06 02:39:00,47.6,46.5,29.92,SW,222,0.0,0.0,96,0.01,,FEW,0.01,VWS V14.01,2013-02-06 10:39:00,
2013-02-06 02:45:00,48.0,46.9,29.92,SW,222,0.0,0.0,96,0.01,,FEW,0.01,VWS V14.01,2013-02-06 10:45:00,
2013-02-06 02:50:00,48.0,46.9,29.92,SW,222,0.0,0.0,96,0.02,,FEW,0.02,VWS V14.01,2013-02-06 10:50:00,
2013-02-06 02:55:00,47.7,46.6,29.92,SW,222,0.0,0.0,96,0.02,,FEW,0.02,VWS V14.01,2013-02-06 10:55:00,
2013-02-06 03:00:00,47.7,46.6,29.92,SW,222,0.0,0.0,96,0.02,,FEW,0.02,VWS V14.01,2013-02-06 11:00:00,
2013-02-06 03:05:00,47.7,46.6,29.92,SW,222,0.0,0.0,96,0.02,,FEW,0.02,VWS V14.01,2013-02-06 11:05:00,
2013-02-06 03:10:00,47.7,46.6,29.92,SW,222,0.0,0.0,96,0.02,,FEW,0.02,VWS V14.01,2013-02-06 11:10:00,
2013-02-06 03:15:00,47.7,46.6,29.92,SW,222,0.0,0.0,96,0.02,,FEW,0.02,VWS V14.01,2013-02-06 11:15:00,
2013-02-06 03:20:00,47.7,46.6,29.92,SW,222,0.0,0.0,96,0.02,,FEW,0.02,VWS V14.01,2013-02-06 11:20:00,
2013-02-06 03:25:00,47.9,46.8,29.92,SW,222,0.0,0.0,96,0.02,,FEW,0.02,VWS V14.01,2013-02-06 11:25:00,
2013-02-06 03:30:00,47.9,46.8,29.92,West,259,0.0,0.0,96,0.01,,FEW,0.02,VWS V14.01,2013-02-06 11:30:00,
2013-02-06 03:35:00,48.0,46.9,29.92,West,259,0.0,0.0,96,0.01,,FEW,0.02,VWS V14.01,2013-02-06 11:35:00,
2013-02-06 03:40:00,47.7,46.6,29.92,North,5,0.0,0.0,96,0.01,,FEW,0.02,VWS V14.01,2013-02-06 11:40:00,
2013-02-06 03:45:00,47.7,46.6,29.92,West,259,0.0,0.0,96,0.01,,FEW,0.02,VWS V14.01,2013-02-06 11:45:00,
2013-02-06 03:50:00,47.7,46.6,29.92,West,259,0.0,0.0,96,0.01,,FEW,0.02,VWS V14.01,2013-02-06 11:50:00,
2013-02-06 03:55:00,47.7,46.6,29.92,West,259,0.0,0.0,96,0.01,,FEW,0.02,VWS V14.01,2013-02-06 11:55:00,
2013-02-06 04:00:00,47.7,46.6,29.93,WSW,258,0.0,2.0,96,0.00,,FEW,0.02,VWS V14.01,2013-02-06 12:00:00,
2013-02-06 04:05:00,47.7,46.6,29.93,WSW,257,0.0,2.0,96,0.00,,FEW,0.02,VWS V14.01,2013-02-06 12:05:00,
2013-02-06 04:10:00,47.9,46.8,29.93,WSW,257,0.0,2.0,96,0.01,,FEW,0.03,VWS V14.01,2013-02-06 12:10:00,
2013-02-06 04:15:00,48.2,47.1,29.94,South,191,0.0,4.0,96,0.01,,FEW,0.03,VWS V14.01,2013-02-06 12:15:00,
2013-02-06 04:20:00,48.2,47.1,29.94,South,191,0.0,4.0,96,0.01,,FEW,0.03,VWS V14.01,2013-02-06 12:20:00,
2013-02-06 04:25:00,47.9,46.8,29.94,South,191,0.0,4.0,96,0.01,,FEW,0.03,VWS V14.01,2013-02-06 12:25:00,
2013-02-06 04:30:00,47.9,46.8,29.94,South,191,0.0,0.0,96,0.01,,FEW,0.03,VWS V14.01,2013-02-06 12:30:00,
2013-02-06 04:35:00,48.0,46.9,29.94,South,191,0.0,0.0,96,0.01,,FEW,0.03,VWS V14.01,2013-02-06 12:35:00,
2013-02-06 04:40:00,48.0,46.9,29.94,South,191,0.0,0.0,96,0.01,,FEW,0.03,VWS V14.01,2013-02-06 12:40:00,
2013-02-06 04:45:00,48.0,46.9,29.95,South,191,0.0,0.0,96,0.01,,FEW,0.03,VWS V14.01,2013-02-06 12:45:00,
2013-02-06 04:50:00,48.0,46.9,29.95,South,191,0.0,0.0,96,0.01,,FEW,0.03,VWS V14.01,2013-02-06 12:50:00,
2013-02-06 04:56:00,48.2,47.1,29.95,South,191,0.0,0.0,96,0.01,,FEW,0.03,VWS V14.01,2013-02-06 12:56:00,
2013-02-06 05:01:00,47.9,46.8,29.95,South,191,0.0,0.0,96,0.01,,FEW,0.03,VWS V14.01,2013-02-06 13:01:00,
2013-02-06 05:06:00,47.7,46.6,29.95,South,191,0.0,0.0,96,0.01,,FEW,0.03,VWS V14.01,2013-02-06 13:06:00,
2013-02-06 05:11:00,47.7,46.6,29.95,South,191,0.0,0.0,96,0.01,,FEW,0.03,VWS V14.01,2013-02-06 13:11:00,
2013-02-06 05:16:00,47.7,46.6,29.95,South,191,0.0,0.0,96,0.01,,FEW,0.03,VWS V14.01,2013-02-06 13:16:00,
2013-02-06 05:21:00,47.7,46.6,29.95,South,191,0.0,0.0,96,0.01,,FEW,0.03,VWS V14.01,2013-02-06 13:21:00,
2013-02-06 05:26:00,47.7,46.6,29.95,South,191,0.0,0.0,96,0.01,,FEW,0.03,VWS V14.01,2013-02-06 13:26:00,
2013-02-06 05:31:00,47.7,46.6,29.95,South,191,0.0,0.0,96,0.00,,FEW,0.03,VWS V14.01,2013-02-06 13:31:00,
2013-02-06 05:36:00,48.0,46.9,29.95,South,191,0.0,0.0,96,0.00,,FEW,0.03,VWS V14.01,2013-02-06 13:36:00,
2013-02-06 05:41:00,47.7,46.6,29.95,South,191,0.0,0.0,96,0.00,,FEW,0.03,VWS V14.01,2013-02-06 13:41:00,
2013-02-06 05:46:00,47.7,46.6,29.95,South,191,0.0,0.0,96,0.00,,FEW,0.03,VWS V14.01,2013-02-06 13:46:00,
2013-02-06 05:51:00,47.7,46.6,29.95,South,191,0.0,1.0,96,0.01,,FEW,0.04,VWS V14.01,2013-02-06 13:51:00,
2013-02-06 05:56:00,47.7,46.6,29.95,South,191,0.0,1.0,96,0.01,,FEW,0.04,VWS V14.01,2013-02-06 13:56:00,
2013-02-06 06:01:00,47.7,46.6,29.96,South,191,0.0,0.0,96,0.01,,FEW,0.04,VWS V14.01,2013-02-06 14:01:00,
2013-02-06 06:06:00,47.7,46.6,29.96,South,191,0.0,0.0,96,0.01,,FEW,0.04,VWS V14.01,2013-02-06 14:06:00,
2013-02-06 06:11:00,47.9,46.8,29.96,South,191,0.0,1.0,96,0.01,,FEW,0.04,VWS V14.01,2013-02-06 14:11:00,
2013-02-06 06:16:00,47.9,46.8,29.96,South,191,0.0,1.0,96,0.01,,FEW,0.04,VWS V14.01,2013-02-06 14:16:00,
2013-02-06 06:21:00,47.7,46.6,29.96,South,191,0.0,1.0,96,0.01,,FEW,0.04,VWS V14.01,2013-02-06 14:21:00,
2013-02-06 06:26:00,48.0,46.9,29.96,South,191,0.0,1.0,96,0.01,,FEW,0.04,VWS V14.01,2013-02-06 14:26:00,
2013-02-06 06:31:00,47.7,46.6,29.97,South,191,0.0,0.0,96,0.01,,FEW,0.04,VWS V14.01,2013-02-06 14:31:00,
2013-02-06 06:36:00,47.6,46.5,29.97,South,180,0.0,1.0,96,0.01,,FEW,0.04,VWS V14.01,2013-02-06 14:36:00,
2013-02-06 06:41:00,47.6,46.5,29.97,South,180,0.0,1.0,96,0.01,,FEW,0.04,VWS V14.01,2013-02-06 14:41:00,
2013-02-06 06:46:00,47.7,46.6,29.97,SSE,156,0.0,2.0,96,0.01,,FEW,0.04,VWS V14.01,2013-02-06 14:46:00,
2013-02-06 06:51:00,47.7,46.6,29.97,SSE,156,0.0,2.0,96,0.01,,FEW,0.04,VWS V14.01,2013-02-06 14:51:00,
2013-02-06 06:56:00,47.7,46.6,29.97,SE,128,1.0,3.0,96,0.01,,FEW,0.04,VWS V14.01,2013-02-06 14:56:00,
2013-02-06 07:01:00,48.0,46.9,29.97,SE,128,0.0,0.0,96,0.00,,FEW,0.04,VWS V14.01,2013-02-06 15:01:00,
2013-02-06 07:06:00,48.0,46.9,29.97,SE,129,0.0,2.0,96,0.01,,FEW,0.05,VWS V14.01,2013-02-06 15:06:00,
2013-02-06 07:11:00,47.7,46.6,29.97,SW,226,0.0,2.0,96,0.01,,FEW,0.05,VWS V14.01,2013-02-06 15:11:00,
2013-02-06 07:16:00,48.0,46.9,29.97,SW,226,0.0,2.0,96,0.01,,FEW,0.05,VWS V14.01,2013-02-06 15:16:00,
2013-02-06 07:21:00,47.7,46.6,29.97,SW,226,0.0,2.0,96,0.01,,FEW,0.05,VWS V14.01,2013-02-06 15:21:00,
2013-02-06 07:26:00,47.7,46.6,29.97,WSW,237,0.0,2.0,96,0.01,,FEW,0.05,VWS V14.01,2013-02-06 15:26:00,
2013-02-06 07:31:00,47.7,46.3,29.97,WSW,237,0.0,0.0,95,0.01,,FEW,0.05,VWS V14.01,2013-02-06 15:31:00,
2013-02-06 07:36:00,47.6,46.2,29.97,WSW,237,0.0,0.0,95,0.01,,FEW,0.05,VWS V14.01,2013-02-06 15:36:00,
2013-02-06 07:41:00,47.6,46.2,29.97,WSW,237,0.0,0.0,95,0.01,,FEW,0.05,VWS V14.01,2013-02-06 15:41:00,
2013-02-06 07:46:00,47.6,46.2,29.98,WSW,237,0.0,0.0,95,0.01,,FEW,0.05,VWS V14.01,2013-02-06 15:46:00,
2013-02-06 07:51:00,47.6,46.2,29.98,NE,41,0.0,1.0,95,0.01,,FEW,0.05,VWS V14.01,2013-02-06 15:51:00,
2013-02-06 07:56:00,47.3,45.9,29.98,NE,41,0.0,1.0,95,0.01,,FEW,0.05,VWS V14.01,2013-02-06 15:56:00,
2013-02-06 08:01:00,47.3,46.2,29.97,NE,41,0.0,0.0,96,0.01,,FEW,0.05,VWS V14.01,2013-02-06 16:01:00,
2013-02-06 08:06:00,47.3,46.2,29.97,NE,41,0.0,0.0,96,0.01,,FEW,0.05,VWS V14.01,2013-02-06 16:06:00,
2013-02-06 08:11:00,47.3,46.2,29.97,NE,41,0.0,0.0,96,0.01,,FEW,0.05,VWS V14.01,2013-02-06 16:11:00,
2013-02-06 08:17:00,47.3,46.2,29.97,NE,41,0.0,0.0,96,0.01,,FEW,0.05,VWS V14.01,2013-02-06 16:17:00,
2013-02-06 08:22:00,47.4,46.3,29.97,NE,41,0.0,0.0,96,0.01,,FEW,0.05,VWS V14.01,2013-02-06 16:22:00,
2013-02-06 08:27:00,47.7,46.6,29.97,NE,41,0.0,0.0,96,0.01,,FEW,0.05,VWS V14.01,2013-02-06 16:27:00,
2013-02-06 08:32:00,47.9,46.8,29.97,NE,41,0.0,0.0,96,0.00,,FEW,0.05,VWS V14.01,2013-02-06 16:32:00,
2013-02-06 08:37:00,47.6,46.5,29.97,NE,41,0.0,0.0,96,0.00,,FEW,0.05,VWS V14.01,2013-02-06 16:37:00,
2013-02-06 08:42:00,47.7,46.6,29.97,NE,41,0.0,0.0,96,0.00,,FEW,0.05,VWS V14.01,2013-02-06 16:42:00,
2013-02-06 08:47:00,47.9,46.8,29.97,NE,41,0.0,0.0,96,0.00,,FEW,0.05,VWS V14.01,2013-02-06 16:47:00,
2013-02-06 08:52:00,48.0,46.9,29.97,NE,41,0.0,0.0,96,0.00,,FEW,0.05,VWS V14.01,2013-02-06 16:52:00,
2013-02-06 08:57:00,48.2,47.1,29.97,NE,41,0.0,0.0,96,0.00,,FEW,0.05,VWS V14.01,2013-02-06 16:57:00,
2013-02-06 09:02:00,48.0,46.9,29.97,NE,41,0.0,0.0,96,0.00,,FEW,0.05,VWS V14.01,2013-02-06 17:02:00,
2013-02-06 09:07:00,48.2,47.1,29.97,East,95,0.0,1.0,96,0.00,,FEW,0.05,VWS V14.01,2013-02-06 17:07:00,
2013-02-06 09:12:00,48.5,47.4,29.97,East,95,0.0,1.0,96,0.00,,FEW,0.05,VWS V14.01,2013-02-06 17:12:00,
2013-02-06 09:17:00,48.5,47.1,29.96,SSW,197,0.0,5.0,95,0.00,,FEW,0.05,VWS V14.01,2013-02-06 17:17:00,
2013-02-06 09:22:00,48.8,47.4,29.96,SSW,197,0.0,5.0,95,0.00,,FEW,0.05,VWS V14.01,2013-02-06 17:22:00,
2013-02-06 09:27:00,49.2,47.3,29.96,SSW,206,0.0,5.0,93,0.00,,FEW,0.05,VWS V14.01,2013-02-06 17:27:00,
2013-02-06 09:32:00,49.4,46.9,29.96,SSW,206,0.0,1.0,91,0.00,,FEW,0.05,VWS V14.01,2013-02-06 17:32:00,
2013-02-06 09:37:00,49.6,46.5,29.96,SSW,206,0.0,2.0,89,0.00,,FEW,0.05,VWS V14.01,2013-02-06 17:37:00,
2013-02-06 09:42:00,49.9,46.2,29.96,SSW,206,1.0,2.0,87,0.00,,FEW,0.05,VWS V14.01,2013-02-06 17:42:00,
2013-02-06 09:47:00,50.2,45.9,29.95,South,172,1.0,3.0,85,0.00,,FEW,0.05,VWS V14.01,2013-02-06 17:47:00,
2013-02-06 09:52:00,50.5,45.2,29.95,South,169,3.0,5.0,82,0.00,,FEW,0.05,VWS V14.01,2013-02-06 17:52:00,
2013-02-06 09:57:00,51.0,44.7,29.95,SSE,162,3.0,9.0,79,0.00,,FEW,0.05,VWS V14.01,2013-02-06 17:57:00,
2013-02-06 10:02:00,51.7,44.4,29.95,South,182,2.0,6.0,76,0.00,,FEW,0.05,VWS V14.01,2013-02-06 18:02:00,
2013-02-06 10:07:00,51.7,43.7,29.95,SSW,193,7.0,10.0,74,0.00,,FEW,0.05,VWS V14.01,2013-02-06 18:07:00,
2013-02-06 10:12:00,52.0,43.6,29.95,South,191,2.0,10.0,73,0.00,,FEW,0.05,VWS V14.01,2013-02-06 18:12:00,
2013-02-06 10:17:00,52.2,43.5,29.95,South,190,5.0,10.0,72,0.00,,FEW,0.05,VWS V14.01,2013-02-06 18:17:00,
2013-02-06 10:22:00,52.5,44.1,29.95,SE,124,0.0,10.0,73,0.00,,FEW,0.05,VWS V14.01,2013-02-06 18:22:00,
2013-02-06 10:27:00,52.5,44.1,29.95,SSW,195,3.0,10.0,73,0.00,,FEW,0.05,VWS V14.01,2013-02-06 18:27:00,
2013-02-06 10:32:00,52.8,44.0,29.95,South,189,2.0,5.0,72,0.00,,FEW,0.05,VWS V14.01,2013-02-06 18:32:00,
2013-02-06 10:37:00,52.9,44.1,29.95,South,187,3.0,6.0,72,0.00,,FEW,0.05,VWS V14.01,2013-02-06 18:37:00,
2013-02-06 10:42:00,53.1,43.2,29.95,South,183,3.0,7.0,69,0.00,,FEW,0.05,VWS V14.01,2013-02-06 18:42:00,
2013-02-06 10:48:00,53.2,43.3,29.95,SSW,211,2.0,7.0,69,0.00,,FEW,0.05,VWS V14.01,2013-02-06 18:48:00,
2013-02-06 10:53:00,53.5,43.6,29.95,South,185,3.0,7.0,69,0.00,,FEW,0.05,VWS V14.01,2013-02-06 18:53:00,
2013-02-06 10:58:00,53.2,42.5,29.95,SSW,195,3.0,7.0,67,0.00,,FEW,0.05,VWS V14.01,2013-02-06 18:58:00,
2013-02-06 11:03:00,53.5,43.2,29.95,SE,128,3.0,3.0,68,0.00,,FEW,0.05,VWS V14.01,2013-02-06 19:03:00,
2013-02-06 11:08:00,53.8,43.5,29.95,SSW,195,5.0,7.0,68,0.00,,FEW,0.05,VWS V14.01,2013-02-06 19:08:00,
2013-02-06 11:13:00,54.1,43.0,29.95,SSW,192,4.0,8.0,66,0.00,,FEW,0.05,VWS V14.01,2013-02-06 19:13:00,
2013-02-06 11:18:00,54.4,44.1,29.95,South,191,4.0,11.0,68,0.00,,FEW,0.05,VWS V14.01,2013-02-06 19:18:00,
2013-02-06 11:23:00,54.2,42.7,29.95,SSW,199,6.0,13.0,65,0.00,,FEW,0.05,VWS V14.01,2013-02-06 19:23:00,
2013-02-06 11:28:00,54.2,43.5,29.95,South,189,5.0,13.0,67,0.00,,FEW,0.05,VWS V14.01,2013-02-06 19:28:00,
2013-02-06 11:33:00,54.2,43.1,29.94,South,188,5.0,6.0,66,0.00,,FEW,0.05,VWS V14.01,2013-02-06 19:33:00,
2013-02-06 11:38:00,54.4,43.3,29.94,South,176,2.0,7.0,66,0.00,,FEW,0.05,VWS V14.01,2013-02-06 19:38:00,
2013-02-06 11:43:00,54.2,42.7,29.94,South,186,1.0,11.0,65,0.00,,FEW,0.05,VWS V14.01,2013-02-06 19:43:00,
2013-02-06 11:48:00,53.9,43.2,29.94,SSW,202,5.0,11.0,67,0.00,,FEW,0.05,VWS V14.01,2013-02-06 19:48:00,
2013-02-06 11:53:00,53.9,43.2,29.94,South,187,2.0,11.0,67,0.00,,FEW,0.05,VWS V14.01,2013-02-06 19:53:00,
2013-02-06 11:58:00,53.9,42.8,29.94,SSW,192,6.0,11.0,66,0.00,,FEW,0.05,VWS V14.01,2013-02-06 19:58:00,
2013-02-06 12:03:00,54.1,43.0,29.92,ESE,112,0.0,8.0,66,0.00,,FEW,0.05,VWS V14.01,2013-02-06 20:03:00,
2013-02-06 12:08:00,54.2,42.7,29.92,South,191,5.0,8.0,65,0.00,,FEW,0.05,VWS V14.01,2013-02-06 20:08:00,
2013-02-06 12:13:00,54.4,42.9,29.92,South,190,5.0,8.0,65,0.00,,FEW,0.05,VWS V14.01,2013-02-06 20:13:00,
2013-02-06 12:18:00,54.5,43.0,29.92,SSE,164,2.0,11.0,65,0.00,,FEW,0.05,VWS V14.01,2013-02-06 20:18:00,
2013-02-06 12:23:00,54.7,43.2,29.92,SSW,200,2.0,13.0,65,0.00,,FEW,0.05,VWS V14.01,2013-02-06 20:23:00,
2013-02-06 12:28:00,54.8,43.3,29.92,SE,136,6.0,13.0,65,0.00,,FEW,0.05,VWS V14.01,2013-02-06 20:28:00,
2013-02-06 12:33:00,54.8,43.3,29.91,SSW,196,7.0,12.0,65,0.00,,FEW,0.05,VWS V14.01,2013-02-06 20:33:00,
2013-02-06 12:38:00,54.5,43.0,29.91,SSW,192,6.0,12.0,65,0.00,,FEW,0.05,VWS V14.01,2013-02-06 20:38:00,
2013-02-06 12:43:00,54.4,42.9,29.91,South,190,7.0,12.0,65,0.00,,FEW,0.05,VWS V14.01,2013-02-06 20:43:00,
2013-02-06 12:48:00,54.5,43.0,29.91,SSW,205,6.0,12.0,65,0.00,,FEW,0.05,VWS V14.01,2013-02-06 20:48:00,
2013-02-06 12:53:00,54.5,42.6,29.91,SSW,201,4.0,12.0,64,0.00,,FEW,0.05,VWS V14.01,2013-02-06 20:53:00,
2013-02-06 12:58:00,54.5,42.6,29.91,South,189,6.0,12.0,64,0.00,,FEW,0.05,VWS V14.01,2013-02-06 20:58:00,
2013-02-06 13:03:00,54.7,42.8,29.91,South,187,4.0,5.0,64,0.00,,FEW,0.05,VWS V14.01,2013-02-06 21:03:00,
2013-02-06 13:08:00,54.7,43.6,29.91,South,188,5.0,7.0,66,0.00,,FEW,0.05,VWS V14.01,2013-02-06 21:08:00,
2013-02-06 13:13:00,54.4,42.9,29.91,South,189,7.0,11.0,65,0.00,,FEW,0.05,VWS V14.01,2013-02-06 21:13:00,
2013-02-06 13:18:00,54.4,42.9,29.91,South,188,5.0,11.0,65,0.00,,FEW,0.05,VWS V14.01,2013-02-06 21:18:00,
2013-02-06 13:23:00,54.5,43.0,29.91,South,187,6.0,12.0,65,0.00,,FEW,0.05,VWS V14.01,2013-02-06 21:23:00,
2013-02-06 13:28:00,54.5,43.0,29.91,SSE,161,4.0,12.0,65,0.00,,FEW,0.05,VWS V14.01,2013-02-06 21:28:00,
2013-02-06 13:34:00,54.4,42.9,29.90,South,187,4.0,6.0,65,0.00,,FEW,0.05,VWS V14.01,2013-02-06 21:34:00,
2013-02-06 13:39:00,54.4,42.9,29.90,SSW,203,9.0,9.0,65,0.00,,FEW,0.05,VWS V14.01,2013-02-06 21:39:00,
2013-02-06 13:44:00,54.5,43.4,29.90,South,191,3.0,9.0,66,0.00,,FEW,0.05,VWS V14.01,2013-02-06 21:44:00,
2013-02-06 13:49:00,54.4,43.7,29.89,South,176,2.0,9.0,67,0.00,,FEW,0.05,VWS V14.01,2013-02-06 21:49:00,
2013-02-06 13:54:00,54.2,43.5,29.89,South,187,3.0,9.0,67,0.00,,FEW,0.05,VWS V14.01,2013-02-06 21:54:00,
2013-02-06 13:59:00,54.4,44.1,29.89,South,184,2.0,9.0,68,0.00,,FEW,0.05,VWS V14.01,2013-02-06 21:59:00,
2013-02-06 14:04:00,54.4,43.7,29.89,South,172,5.0,7.0,67,0.00,,FEW,0.05,VWS V14.01,2013-02-06 22:04:00,
2013-02-06 14:09:00,54.1,43.4,29.89,SSW,200,3.0,9.0,67,0.00,,FEW,0.05,VWS V14.01,2013-02-06 22:09:00,
2013-02-06 14:14:00,54.1,43.4,29.89,SSW,200,2.0,9.0,67,0.00,,FEW,0.05,VWS V14.01,2013-02-06 22:14:00,
2013-02-06 14:19:00,54.1,44.2,29.88,SSE,161,0.0,9.0,69,0.00,,FEW,0.05,VWS V14.01,2013-02-06 22:19:00,
2013-02-06 14:24:00,53.9,44.0,29.88,SSW,207,2.0,9.0,69,0.00,,FEW,0.05,VWS V14.01,2013-02-06 22:24:00,
2013-02-06 14:29:00,53.8,43.9,29.88,South,188,1.0,9.0,69,0.00,,FEW,0.05,VWS V14.01,2013-02-06 22:29:00,
2013-02-06 14:34:00,53.9,44.0,29.88,South,187,0.0,5.0,69,0.00,,FEW,0.05,VWS V14.01,2013-02-06 22:34:00,
2013-02-06 14:39:00,53.9,44.3,29.88,SE,144,1.0,5.0,70,0.00,,FEW,0.05,VWS V14.01,2013-02-06 22:39:00,
2013-02-06 14:44:00,53.9,44.7,29.88,SSW,199,4.0,5.0,71,0.00,,FEW,0.05,VWS V14.01,2013-02-06 22:44:00,
2013-02-06 14:49:00,53.8,45.0,29.88,SSW,199,2.0,5.0,72,0.00,,FEW,0.05,VWS V14.01,2013-02-06 22:49:00,
2013-02-06 14:54:00,53.6,45.2,29.88,SSW,201,1.0,5.0,73,0.00,,FEW,0.05,VWS V14.01,2013-02-06 22:54:00,
2013-02-06 14:59:00,53.2,45.5,29.88,SSW,200,0.0,5.0,75,0.00,,FEW,0.05,VWS V14.01,2013-02-06 22:59:00,
2013-02-06 15:04:00,53.2,44.8,29.88,SE,139,1.0,7.0,73,0.00,,FEW,0.05,VWS V14.01,2013-02-06 23:04:00,
2013-02-06 15:09:00,53.2,44.8,29.88,SSE,151,1.0,7.0,73,0.00,,FEW,0.05,VWS V14.01,2013-02-06 23:09:00,
2013-02-06 15:14:00,53.3,44.9,29.87,South,176,1.0,7.0,73,0.00,,FEW,0.05,VWS V14.01,2013-02-06 23:14:00,
2013-02-06 15:19:00,53.2,44.8,29.87,ESE,114,2.0,7.0,73,0.00,,FEW,0.05,VWS V14.01,2013-02-06 23:19:00,
2013-02-06 15:24:00,53.3,44.9,29.87,SE,128,0.0,7.0,73,0.00,,FEW,0.05,VWS V14.01,2013-02-06 23:24:00,
2013-02-06 15:29:00,53.5,45.1,29.86,South,178,3.0,7.0,73,0.00,,FEW,0.05,VWS V14.01,2013-02-06 23:29:00,
2013-02-06 15:34:00,53.5,44.7,29.86,ESE,121,4.0,7.0,72,0.00,,FEW,0.05,VWS V14.01,2013-02-06 23:34:00,
2013-02-06 15:39:00,53.3,44.2,29.86,SSE,161,3.0,7.0,71,0.00,,FEW,0.05,VWS V14.01,2013-02-06 23:39:00,
2013-02-06 15:44:00,53.3,44.2,29.86,South,191,4.0,7.0,71,0.00,,FEW,0.05,VWS V14.01,2013-02-06 23:44:00,
2013-02-06 15:49:00,53.3,44.5,29.86,South,185,6.0,9.0,72,0.00,,FEW,0.05,VWS V14.01,2013-02-06 23:49:00,
2013-02-06 15:55:00,53.3,44.2,29.86,South,184,4.0,9.0,71,0.00,,FEW,0.05,VWS V14.01,2013-02-06 23:55:00,
2013-02-06 16:00:00,53.3,44.2,29.86,SSW,195,3.0,9.0,71,0.00,,FEW,0.05,VWS V14.01,2013-02-07 00:00:00,
2013-02-06 16:05:00,53.3,44.2,29.86,SE,134,2.0,11.0,71,0.00,,FEW,0.05,VWS V14.01,2013-02-07 00:05:00,
2013-02-06 16:10:00,53.3,44.2,29.86,SE,126,4.0,11.0,71,0.00,,FEW,0.05,VWS V14.01,2013-02-07 00:10:00,
2013-02-06 16:15:00,53.2,44.4,29.86,SE,133,2.0,11.0,72,0.00,,FEW,0.05,VWS V14.01,2013-02-07 00:15:00,
2013-02-06 16:20:00,53.3,44.2,29.86,SSE,163,1.0,11.0,71,0.00,,FEW,0.05,VWS V14.01,2013-02-07 00:20:00,
2013-02-06 16:25:00,53.3,44.5,29.86,South,174,0.0,11.0,72,0.00,,FEW,0.05,VWS V14.01,2013-02-07 00:25:00,
2013-02-06 16:30:00,53.1,44.0,29.85,South,175,1.0,11.0,71,0.00,,FEW,0.05,VWS V14.01,2013-02-07 00:30:00,
2013-02-06 16:35:00,53.1,44.0,29.85,SE,140,2.0,7.0,71,0.00,,FEW,0.05,VWS V14.01,2013-02-07 00:35:00,
2013-02-06 16:40:00,53.1,44.0,29.85,South,183,2.0,7.0,71,0.00,,FEW,0.05,VWS V14.01,2013-02-07 00:40:00,
2013-02-06 16:45:00,53.1,44.0,29.85,South,178,2.0,7.0,71,0.00,,FEW,0.05,VWS V14.01,2013-02-07 00:45:00,
2013-02-06 16:50:00,53.1,43.6,29.85,South,183,2.0,7.0,70,0.00,,FEW,0.05,VWS V14.01,2013-02-07 00:50:00,
2013-02-06 16:55:00,53.2,43.7,29.85,SSE,149,1.0,7.0,70,0.00,,FEW,0.05,VWS V14.01,2013-02-07 00:55:00,
2013-02-06 17:00:00,53.3,43.4,29.84,SE,141,1.0,10.0,69,0.00,,FEW,0.05,VWS V14.01,2013-02-07 01:00:00,
2013-02-06 17:05:00,53.3,43.4,29.84,SSE,158,0.0,5.0,69,0.00,,FEW,0.05,VWS V14.01,2013-02-07 01:05:00,
2013-02-06 17:10:00,53.1,43.2,29.84,SSW,194,4.0,7.0,69,0.00,,FEW,0.05,VWS V14.01,2013-02-07 01:10:00,
2013-02-06 17:15:00,53.1,43.2,29.84,SSW,194,2.0,9.0,69,0.00,,FEW,0.05,VWS V14.01,2013-02-07 01:15:00,
2013-02-06 17:20:00,53.1,43.2,29.84,SE,131,2.0,9.0,69,0.00,,FEW,0.05,VWS V14.01,2013-02-07 01:20:00,
2013-02-06 17:25:00,52.9,43.4,29.84,SSE,153,0.0,10.0,70,0.00,,FEW,0.05,VWS V14.01,2013-02-07 01:25:00,
2013-02-06 17:30:00,52.9,43.4,29.83,SE,124,0.0,0.0,70,0.00,,FEW,0.05,VWS V14.01,2013-02-07 01:30:00,
2013-02-06 17:35:00,52.9,43.4,29.83,SE,133,0.0,3.0,70,0.00,,FEW,0.05,VWS V14.01,2013-02-07 01:35:00,
2013-02-06 17:40:00,52.9,43.4,29.83,South,183,0.0,3.0,70,0.00,,FEW,0.05,VWS V14.01,2013-02-07 01:40:00,
2013-02-06 17:45:00,52.5,43.4,29.83,South,189,0.0,3.0,71,0.00,,FEW,0.05,VWS V14.01,2013-02-07 01:45:00,
2013-02-06 17:50:00,52.5,43.4,29.83,SSW,199,0.0,3.0,71,0.00,,FEW,0.05,VWS V14.01,2013-02-07 01:50:00,
2013-02-06 17:55:00,52.3,43.5,29.83,WSW,249,0.0,3.0,72,0.00,,FEW,0.05,VWS V14.01,2013-02-07 01:55:00,
2013-02-06 18:00:00,52.2,43.5,29.82,WSW,244,0.0,1.0,72,0.00,,FEW,0.05,VWS V14.01,2013-02-07 02:00:00,
2013-02-06 18:05:00,52.2,43.1,29.82,South,189,0.0,1.0,71,0.00,,FEW,0.05,VWS V14.01,2013-02-07 02:05:00,
2013-02-06 18:10:00,52.0,43.3,29.82,South,185,0.0,1.0,72,0.00,,FEW,0.05,VWS V14.01,2013-02-07 02:10:00,
2013-02-06 18:15:00,51.9,43.5,29.81,South,185,0.0,1.0,73,0.00,,FEW,0.05,VWS V14.01,2013-02-07 02:15:00,
2013-02-06 18:20:00,51.7,43.0,29.81,South,191,0.0,3.0,72,0.00,,FEW,0.05,VWS V14.01,2013-02-07 02:20:00,
2013-02-06 18:25:00,52.0,43.3,29.81,SSW,201,1.0,3.0,72,0.00,,FEW,0.05,VWS V14.01,2013-02-07 02:25:00,
2013-02-06 18:30:00,51.9,42.8,29.80,South,185,2.0,2.0,71,0.00,,FEW,0.05,VWS V14.01,2013-02-07 02:30:00,
2013-02-06 18:35:00,52.0,42.5,29.80,South,179,1.0,3.0,70,0.00,,FEW,0.05,VWS V14.01,2013-02-07 02:35:00,
2013-02-06 18:40:00,51.9,43.2,29.80,South,179,0.0,3.0,72,0.00,,FEW,0.05,VWS V14.01,2013-02-07 02:40:00,
2013-02-06 18:45:00,51.7,43.3,29.79,South,179,0.0,3.0,73,0.00,,FEW,0.05,VWS V14.01,2013-02-07 02:45:00,
2013-02-06 18:50:00,51.4,43.4,29.79,South,179,0.0,3.0,74,0.00,,FEW,0.05,VWS V14.01,2013-02-07 02:50:00,
2013-02-06 18:55:00,51.3,43.3,29.79,South,179,0.0,3.0,74,0.00,,FEW,0.05,VWS V14.01,2013-02-07 02:55:00,
2013-02-06 19:00:00,51.3,43.0,29.78,SSE,166,0.0,0.0,73,0.00,,FEW,0.05,VWS V14.01,2013-02-07 03:00:00,
2013-02-06 19:05:00,51.6,42.5,29.78,SSE,163,1.0,3.0,71,0.00,,FEW,0.05,VWS V14.01,2013-02-07 03:05:00,
2013-02-06 19:11:00,52.0,42.2,29.78,SSW,199,1.0,5.0,69,0.00,,FEW,0.05,VWS V14.01,2013-02-07 03:11:00,
2013-02-06 19:16:00,52.0,42.2,29.78,South,188,1.0,5.0,69,0.00,,FEW,0.05,VWS V14.01,2013-02-07 03:16:00,
2013-02-06 19:21:00,52.3,41.7,29.78,SSW,194,1.0,5.0,67,0.00,,FEW,0.05,VWS V14.01,2013-02-07 03:21:00,
2013-02-06 19:26:00,52.5,42.3,29.78,South,181,2.0,5.0,68,0.00,,FEW,0.05,VWS V14.01,2013-02-07 03:26:00,
2013-02-06 19:31:00,52.6,41.6,29.78,SSE,164,2.0,6.0,66,0.00,,FEW,0.05,VWS V14.01,2013-02-07 03:31:00,
2013-02-06 19:36:00,52.9,41.5,29.78,South,188,1.0,7.0,65,0.00,,FEW,0.05,VWS V14.01,2013-02-07 03:36:00,
2013-02-06 19:41:00,53.1,41.7,29.78,South,185,2.0,7.0,65,0.00,,FEW,0.05,VWS V14.01,2013-02-07 03:41:00,
2013-02-06 19:46:00,53.1,41.3,29.77,SSW,207,1.0,7.0,64,0.00,,FEW,0.05,VWS V14.01,2013-02-07 03:46:00,
2013-02-06 19:51:00,53.1,41.7,29.77,SSW,203,6.0,7.0,65,0.00,,FEW,0.05,VWS V14.01,2013-02-07 03:51:00,
2013-02-06 19:56:00,53.3,41.5,29.77,SSW,197,13.0,13.0,64,0.00,,FEW,0.05,VWS V14.01,2013-02-07 03:56:00,
2013-02-06 20:01:00,53.5,41.6,29.77,SW,214,5.0,6.0,64,0.00,,FEW,0.05,VWS V14.01,2013-02-07 04:01:00,
2013-02-06 20:06:00,53.2,41.0,29.77,SSW,192,3.0,6.0,63,0.00,,FEW,0.05,VWS V14.01,2013-02-07 04:06:00,
2013-02-06 20:11:00,53.1,41.7,29.77,South,190,4.0,7.0,65,0.00,,FEW,0.05,VWS V14.01,2013-02-07 04:11:00,
2013-02-06 20:16:00,53.2,41.0,29.76,SE,133,1.0,7.0,63,0.00,,FEW,0.05,VWS V14.01,2013-02-07 04:16:00,
2013-02-06 20:21:00,52.9,42.6,29.76,NNE,25,2.0,7.0,68,0.00,,FEW,0.05,VWS V14.01,2013-02-07 04:21:00,
2013-02-06 20:26:00,51.7,43.3,29.76,NNE,25,1.0,7.0,73,0.00,,FEW,0.05,VWS V14.01,2013-02-07 04:26:00,
2013-02-06 20:31:00,50.8,43.5,29.75,NNE,25,0.0,0.0,76,0.00,,FEW,0.05,VWS V14.01,2013-02-07 04:31:00,
2013-02-06 20:36:00,50.5,43.6,29.75,NNE,19,0.0,3.0,77,0.00,,FEW,0.05,VWS V14.01,2013-02-07 04:36:00,
2013-02-06 20:41:00,49.6,43.4,29.75,NNE,19,0.0,3.0,79,0.00,,FEW,0.05,VWS V14.01,2013-02-07 04:41:00,
2013-02-06 20:46:00,49.2,43.3,29.74,NNE,19,0.0,3.0,80,0.00,,FEW,0.05,VWS V14.01,2013-02-07 04:46:00,
2013-02-06 20:51:00,49.1,43.2,29.74,ESE,109,0.0,6.0,80,0.00,,FEW,0.05,VWS V14.01,2013-02-07 04:51:00,
2013-02-06 20:56:00,50.2,41.9,29.74,SSW,199,2.0,6.0,73,0.00,,FEW,0.05,VWS V14.01,2013-02-07 04:56:00,
2013-02-06 21:00:00,51.3,41.1,29.73,SSW,200,0.0,11.0,68,0.00,,FEW,0.05,VWS V14.01,2013-02-07 05:00:00,
2013-02-06 21:03:00,52.2,40.4,29.73,SE,143,0.0,7.0,64,0.00,,FEW,0.05,VWS V14.01,2013-02-07 05:03:00,
2013-02-06 21:08:00,53.2,39.7,29.73,SE,140,2.0,7.0,60,0.00,,FEW,0.05,VWS V14.01,2013-02-07 05:08:00,
2013-02-06 21:13:00,53.5,40.4,29.73,SSW,195,11.0,15.0,61,0.00,,FEW,0.05,VWS V14.01,2013-02-07 05:13:00,
2013-02-06 21:18:00,54.2,39.8,29.73,South,185,11.0,15.0,58,0.00,,FEW,0.05,VWS V14.01,2013-02-07 05:18:00,
2013-02-06 21:23:00,54.7,39.3,29.73,South,180,1.0,15.0,56,0.00,,FEW,0.05,VWS V14.01,2013-02-07 05:23:00,
2013-02-06 21:28:00,54.7,39.3,29.73,ESE,117,0.0,15.0,56,0.00,,FEW,0.05,VWS V14.01,2013-02-07 05:28:00,
2013-02-06 21:33:00,54.7,38.9,29.72,South,189,6.0,12.0,55,0.00,,FEW,0.05,VWS V14.01,2013-02-07 05:33:00,
2013-02-06 21:38:00,54.7,39.3,29.72,South,189,1.0,12.0,56,0.00,,FEW,0.05,VWS V14.01,2013-02-07 05:38:00,
2013-02-06 21:43:00,54.7,39.3,29.72,South,182,6.0,12.0,56,0.00,,FEW,0.05,VWS V14.01,2013-02-07 05:43:00,
2013-02-06 21:48:00,55.1,38.8,29.72,SSW,192,9.0,12.0,54,0.00,,FEW,0.05,VWS V14.01,2013-02-07 05:48:00,
2013-02-06 21:53:00,55.0,39.2,29.72,South,175,4.0,16.0,55,0.00,,FEW,0.05,VWS V14.01,2013-02-07 05:53:00,
2013-02-06 21:58:00,55.0,39.2,29.72,SSE,147,4.0,16.0,55,0.00,,FEW,0.05,VWS V14.01,2013-02-07 05:58:00,
2013-02-06 22:03:00,55.0,39.2,29.72,SSE,154,3.0,6.0,55,0.00,,FEW,0.05,VWS V14.01,2013-02-07 06:03:00,
2013-02-06 22:08:00,55.0,38.7,29.72,South,187,4.0,12.0,54,0.00,,FEW,0.05,VWS V14.01,2013-02-07 06:08:00,
2013-02-06 22:13:00,55.1,38.8,29.72,SSE,166,8.0,13.0,54,0.00,,FEW,0.05,VWS V14.01,2013-02-07 06:13:00,
2013-02-06 22:18:00,55.3,39.0,29.72,SSW,199,5.0,13.0,54,0.00,,FEW,0.05,VWS V14.01,2013-02-07 06:18:00,
2013-02-06 22:23:00,55.7,38.8,29.72,SSW,194,7.0,17.0,53,0.00,,FEW,0.05,VWS V14.01,2013-02-07 06:23:00,
2013-02-06 22:28:00,55.7,38.8,29.72,SE,129,2.0,17.0,53,0.00,,FEW,0.05,VWS V14.01,2013-02-07 06:28:00,
2013-02-06 22:33:00,55.4,38.1,29.72,South,191,6.0,11.0,52,0.00,,FEW,0.05,VWS V14.01,2013-02-07 06:33:00,
2013-02-06 22:38:00,55.4,38.1,29.72,SSW,195,2.0,12.0,52,0.00,,FEW,0.05,VWS V14.01,2013-02-07 06:38:00,
2013-02-06 22:43:00,55.4,39.0,29.72,SE,124,4.0,12.0,54,0.00,,FEW,0.05,VWS V14.01,2013-02-07 06:43:00,
2013-02-06 22:48:00,55.1,38.8,29.71,South,191,3.0,12.0,54,0.00,,FEW,0.05,VWS V14.01,2013-02-07 06:48:00,
2013-02-06 22:53:00,55.4,39.5,29.71,SE,134,4.0,12.0,55,0.00,,FEW,0.05,VWS V14.01,2013-02-07 06:53:00,
2013-02-06 22:58:00,55.1,38.3,29.71,SSE,162,3.0,12.0,53,0.00,,FEW,0.05,VWS V14.01,2013-02-07 06:58:00,
2013-02-06 23:03:00,55.3,39.0,29.70,SE,143,4.0,7.0,54,0.00,,FEW,0.05,VWS V14.01,2013-02-07 07:03:00,
2013-02-06 23:08:00,55.3,38.5,29.70,SE,135,4.0,12.0,53,0.00,,FEW,0.05,VWS V14.01,2013-02-07 07:08:00,
2013-02-06 23:13:00,55.3,39.0,29.70,SSW,196,4.0,13.0,54,0.00,,FEW,0.05,VWS V14.01,2013-02-07 07:13:00,
2013-02-06 23:18:00,55.4,39.0,29.70,North,356,7.0,13.0,54,0.00,,FEW,0.05,VWS V14.01,2013-02-07 07:18:00,
2013-02-06 23:23:00,55.4,39.5,29.70,SE,126,2.0,13.0,55,0.00,,FEW,0.05,VWS V14.01,2013-02-07 07:23:00,
2013-02-06 23:28:00,55.3,40.3,29.70,SW,224,4.0,13.0,57,0.00,,FEW,0.05,VWS V14.01,2013-02-07 07:28:00,
2013-02-06 23:34:00,55.1,40.2,29.72,SE,139,1.0,16.0,57,0.00,,FEW,0.05,VWS V14.01,2013-02-07 07:34:00,
2013-02-06 23:39:00,54.7,39.8,29.72,South,191,10.0,16.0,57,0.00,,FEW,0.05,VWS V14.01,2013-02-07 07:39:00,
2013-02-06 23:44:00,54.7,39.8,29.72,SSE,167,3.0,16.0,57,0.00,,FEW,0.05,VWS V14.01,2013-02-07 07:44:00,
2013-02-06 23:49:00,54.5,40.0,29.72,SSW,200,5.0,16.0,58,0.00,,FEW,0.05,VWS V14.01,2013-02-07 07:49:00,
2013-02-06 23:54:00,54.5,40.5,29.72,SW,220,3.0,16.0,59,0.00,,FEW,0.05,VWS V14.01,2013-02-07 07:54:00,
2013-02-06 23:59:00,54.2,41.5,29.72,South,183,2.0,16.0,62,0.00,,FEW,0.05,VWS V14.01,2013-02-07 07:59:00,